TimeCDT,TemperatureF,Dew PointF,Humidity,Sea Level PressureIn,VisibilityMPH,Wind Direction,Wind SpeedMPH,Gust SpeedMPH,PrecipitationIn,Events,Conditions,WindDirDegrees,DateUTC
12:53 AM,72.0,68.0,87,30.23,10.0,South,3.5,-,N/A,,Clear,170,2013-08-26 05:53:00
1:53 AM,75.0,68.0,79,30.23,10.0,SSE,4.6,-,N/A,,Clear,160,2013-08-26 06:53:00
2:53 AM,70.0,66.9,90,30.23,10.0,Calm,Calm,-,N/A,,Clear,0,2013-08-26 07:53:00
3:53 AM,69.1,66.0,90,30.23,7.0,Calm,Calm,-,N/A,,Partly Cloudy,0,2013-08-26 08:53:00
4:53 AM,66.9,66.0,97,30.23,7.0,SSE,3.5,-,N/A,,Clear,150,2013-08-26 09:53:00
5:53 AM,68.0,66.0,93,30.24,6.0,Calm,Calm,-,N/A,,Clear,0,2013-08-26 10:53:00
6:34 AM,66.2,64.4,94,30.26,1.8,Calm,Calm,-,N/A,,Clear,0,2013-08-26 11:34:00
6:53 AM,66.9,64.9,93,30.25,3.0,Calm,Calm,-,N/A,,Clear,0,2013-08-26 11:53:00
7:53 AM,72.0,68.0,87,30.26,9.0,Calm,Calm,-,N/A,,Scattered Clouds,0,2013-08-26 12:53:00
8:53 AM,75.9,68.0,76,30.27,10.0,South,5.8,-,N/A,,Mostly Cloudy,180,2013-08-26 13:53:00
9:53 AM,79.0,68.0,69,30.27,10.0,South,5.8,-,N/A,,Scattered Clouds,180,2013-08-26 14:53:00
10:53 AM,82.0,68.0,62,30.27,10.0,South,3.5,-,N/A,,Mostly Cloudy,190,2013-08-26 15:53:00
11:53 AM,82.9,69.1,63,30.26,10.0,Calm,Calm,-,N/A,,Partly Cloudy,0,2013-08-26 16:53:00
12:53 PM,86.0,69.1,57,30.24,10.0,Variable,4.6,-,N/A,,Clear,0,2013-08-26 17:53:00
1:53 PM,86.0,68.0,55,30.22,10.0,Calm,Calm,-,N/A,,Clear,0,2013-08-26 18:53:00
2:53 PM,88.0,71.1,57,30.19,10.0,Calm,Calm,-,N/A,,Partly Cloudy,0,2013-08-26 19:53:00
3:53 PM,87.1,69.1,55,30.17,10.0,ESE,4.6,-,N/A,,Partly Cloudy,110,2013-08-26 20:53:00
4:53 PM,87.1,68.0,53,30.15,10.0,Calm,Calm,-,N/A,,Partly Cloudy,0,2013-08-26 21:53:00
5:53 PM,86.0,66.9,53,30.14,10.0,Calm,Calm,-,N/A,,Clear,0,2013-08-26 22:53:00
6:53 PM,82.0,68.0,62,30.14,10.0,Calm,Calm,-,N/A,,Clear,0,2013-08-26 23:53:00
7:53 PM,75.0,69.1,82,30.14,10.0,Calm,Calm,-,N/A,,Clear,0,2013-08-27 00:53:00
8:53 PM,72.0,69.1,91,30.15,10.0,Calm,Calm,-,N/A,,Clear,0,2013-08-27 01:53:00
9:53 PM,70.0,68.0,93,30.15,10.0,Calm,Calm,-,N/A,,Clear,0,2013-08-27 02:53:00
10:53 PM,68.0,66.0,93,30.15,7.0,Calm,Calm,-,N/A,,Clear,0,2013-08-27 03:53:00
11:53 PM,66.9,64.9,93,30.15,10.0,Calm,Calm,-,N/A,,Clear,0,2013-08-27 04:53:00